Regional Weather Roundup
Issued by NWS

Current Version | Previous Version | Text Only | Print | Product List | Glossary On
Versions: 1 2 3 4 5 6 7 8 9 10 11 12 13 14 15 16 17 18 19 20 21 22 23 24 25 26 27 28 29 30 31 32 33 34 35 36 37 38 39 40 41 42 43 44 45 46 47 48 49 50
000
ASUS46 KLOX 220412
RWRCA

SOUTHERN CALIFORNIA WEATHER ROUNDUP
NATIONAL WEATHER SERVICE OXNARD CALIFORNIA
900 PM PDT THU AUG 21 2014

NOTE: "FAIR" INDICATES FEW OR NO CLOUDS BELOW 12,000 FEET WITH NO
SIGNIFICANT WEATHER AND/OR OBSTRUCTIONS TO VISIBILITY.

  -  STATIONS PRECEEDED BY AN ASTERISK (*) ARE NOT NWS OR FAA
     STATIONS AND ARE NOT SUBJECT TO NWS AND FAA QUALITY CONTROL.

CAZ041-042-087-220500-
LA AND ORANGE COUNTY COASTAL AREAS


CITY           SKY/WX    TMP DP  RH WIND       PRES   REMARKS
L.A. DOWNTOWN  CLEAR     70  61  73 CALM      29.94R
L.A. AIRPORT   PTCLDY    69  61  75 W10       29.95R
LONG BEACH     CLEAR     71  64  78 NW5       29.94R

CITY           SKY/WX    TMP DP  RH WIND       PRES   REMARKS
AVALON           N/A     68 N/A N/A MISG        N/A
FULLERTON      CLEAR     74  61  63 W3        29.93R
*GETTY CENTER    N/A    N/A N/A N/A E2          N/A
HAWTHORNE      CLEAR     70  63  78 W7        29.94R
*LOS ALAMITOS  CLEAR     71  64  79 SW3       29.94R
*REDONDO BEACH   N/A     69  63  83 CALM      29.94R
SANTA ANA      PTCLDY    73  63  70 W3        29.94R
STA MONICA APT CLEAR     69  61  75 SW6       29.95R

$$

CAZ547-548-048-220500-
LA COUNTY VALLEYS AND INLAND EMPIRE


CITY           SKY/WX    TMP DP  RH WIND       PRES   REMARKS
BURBANK        CLEAR     73  61  65 E10       29.94R
VAN NUYS       PTCLDY    74  59  59 SE6       29.94R

CITY           SKY/WX    TMP DP  RH WIND       PRES   REMARKS
*CHATSWORTH      N/A     74  60  60 CALM      29.90R
CHINO          MOCLDY    73  62  68 W8        29.96R
*CLAREMONT       N/A     72  58  61 CALM        N/A
MARCH AFB      CLEAR     76  60  58 SE2       29.98R
*NORTHRIDGE      N/A     75  57  53 E2          N/A
ONTARIO        MOCLDY    76  61  59 W8        29.96R
*PASADENA        N/A     72  63  73 E1          N/A
POMONA         CLEAR     72  59  64 W9        29.98R
RIVERSIDE      CLEAR     76  61  59 NW5       29.95R
SAN BERNARDINO PTCLDY    75  57  53 SW12      29.96R
*SAN GABRIEL     N/A     73  59  62 CALM      29.90R
*WHITEMAN AP   NOT AVBL
*WOODLAND HILL   N/A     75  57  53 S1          N/A

$$

CAZ054-055-220500-
LA AND SAN BERNARDINO COUNTY MOUNTAINS


CITY           SKY/WX    TMP DP  RH WIND       PRES   REMARKS
*ACTON           N/A     76  51  41 SW7         N/A
*BIG BEAR AIRP CLEAR     52  50  93 CALM      30.25R
*BIG PINES       N/A     57  47  69 CALM        N/A
*CHILAO          N/A     66  47  49 SE8         N/A
MT WILSON NWS    N/A     63  43  48 MISG        N/A
SANDBERG       CLEAR     69  52  54 S12       30.12R
*WARM SPRINGS    N/A     66  55  68 W7          N/A

$$

CAZ028-029-059-060-099-220500-
ANTELOPE VALLEY AND SURROUNDING AREAS


CITY           SKY/WX    TMP DP  RH WIND       PRES   REMARKS
LANCASTER      CLEAR     76  55  48 W17       29.97R
PALMDALE       PTCLDY    79  51  37 SW16      29.97R

CITY           SKY/WX    TMP DP  RH WIND       PRES   REMARKS
29 PALMS       PTCLDY    75  58  55 SE7       30.05S
BARSTOW/DAGGET CLEAR     81  52  36 E13G20    29.93R
BISHOP         CLEAR     80  36  20 SE20G26   29.97R
CHINA LAKE     CLEAR     85  53  33 S18G28    29.91R
EDWARDS AFB    PTCLDY    80  53  39 SW16G24   29.94R
MOJAVE         FAIR      81  48  32 SW13G22   29.97R
NEEDLES        MOCLDY    82  57  42 SW13G23   29.92R
VICTORVILLE    CLEAR     79  52  38 S14       30.01R

$$

CAZ039-040-220500-
VENTURA AND SANTA BARBARA COUNTY COAST


CITY           SKY/WX    TMP DP  RH WIND       PRES   REMARKS
CAMARILLO      CLEAR     68  59  73 W3        29.93R
NWS OXNARD       N/A     65  60  81 CALM      29.93S
OXNARD AIRPORT CLEAR     65  60  84 W8        29.93R
*POINT MUGU    PTCLDY    68  60  75 NW3       29.94R
SBA APT/GOLETA CLEAR     65  59  81 CALM      29.91R
*SANTA BARBARA   N/A     67  58  73 CALM      30.00R
*VENTURA         N/A     66  60  80 W3        29.96S

$$

CAZ044-045-220500-
VENTURA COUNTY VALLEYS


CITY           SKY/WX    TMP DP  RH WIND       PRES   REMARKS
*SIMI VALLEY     N/A     68  59  71 CALM      29.90R
*OJAI            N/A     69  59  69 CALM      29.87R
*FILLMORE        N/A     69  60  73 CALM      29.84S

$$

CAZ053-220500-
VENTURA COUNTY MOUNTAINS


CITY           SKY/WX    TMP DP  RH WIND       PRES   REMARKS
*LOCKWOOD VLY    N/A     64  43  45 MISG        N/A
*ROSE VALLEY     N/A     68  55  64 MISG        N/A

$$

CAZ034-035-036-220500-
CENTRAL COAST AND SANTA YNEZ VALLEY


CITY           SKY/WX    TMP DP  RH WIND       PRES   REMARKS
SAN LUIS OBISP CLEAR     62  58  86 NW5       29.95R
SANTA MARIA    CLEAR     63  57  81 CALM      29.95R

CITY           SKY/WX    TMP DP  RH WIND       PRES   REMARKS
*CAL POLY SLO    N/A     64  59  82 S3G10       N/A
*CAMBRIA         N/A     60  57  92 CALM      29.84R
*LOMPOC        CLEAR     63  55  77 W6        29.96R
*PISMO BEACH     N/A     63  60  92 SW1       29.95S
*SANTA YNEZ    FAIR      68  55  64 W5        29.95R

$$

CAZ037-038-051-220500-
SAN LUIS OBISPO COUNTY INTERIOR AND CUYAMA VALLEY


CITY           SKY/WX    TMP DP  RH WIND       PRES   REMARKS
*CUYAMA          N/A     74  50  42 SW8       29.87R
PASO ROBLES    CLEAR     72  49  44 S8        29.93R

$$

CAZ032-033-061-220500-
SOUTHERN DESERTS


CITY           SKY/WX    TMP DP  RH WIND       PRES   REMARKS
BLYTHE         CLOUDY    72  66  81 W5        29.90R
IMPERIAL       CLOUDY    74  66  76 SW3       29.90R
PALM SPRINGS   PTCLDY    85  55  35 E3        29.95R
THERMAL        PTCLDY    81  61  50 SE9       29.88R

$$

ELSEWHERE ACROSS THE WESTERN UNITED STATES AND MEXICO


CITY           SKY/WX    TMP DP  RH WIND       PRES   REMARKS
DENVER, CO     MOCLDY    65  55  70 E6        30.15R
GRAND CANYON,    N/A    N/A N/A N/A MISG        N/A
HONOLULU, HI   PTSUNNY   84  70  61 NE14G20   29.97S
KAHULUI, MAUI  MOSUNNY   82  70  65 NE20      29.96R
LAKE TAHOE, CA CLEAR     63  39  41 SW3       30.19R
LAS VEGAS, NV  MOCLDY    80  47  31 S10       29.94R
MAMMOTH LAKES, FAIR      61  36  39 CALM      30.21R
MEXICO CITY, M MOCLDY    64  50  59 N7        30.37R
PHOENIX, AZ    TSTM      73  68  84 W26G36    29.97R
PORTLAND, OR   PTCLDY    72  51  47 N8        29.94R
RENO, NV       CLEAR     75  39  27 W18G29    30.04R
SALT LAKE CITY MOCLDY    71  49  45 S8        30.00S
SAN DIEGO, CA  MOCLDY    71  62  73 NW8       29.95R
SAN FRANCISCO, PTCLDY    63  59  87 NW14      29.92S
SAN JOSE, CA   CLEAR     67  59  75 W13       29.92R
SEATTLE, WA    PTCLDY    65  52  62 N6        29.99R
TIJUANA, MEX   PTCLDY    68  61  77 W6        29.96S

$$

STATION/POSITION TIME  TEMP    WIND        PRES    VSBY  WAVE
                       AIR SEA DIR/SP/G                  HT/PER
                 (UTC) (F)     (DEG/KT/KT) (MB)    (MI)  (FT/S)
POINT ARGUELLO B NOT AVBL
WEST SANTA BARBA 0400   63 63  310/ 16/ 17 1012.4R         4/11
POINT CONCEPTION NOT AVBL
EAST SANTA BARBA 0300   63 64  260/ 10/ 12 1012.8R
SANTA MONICA BAY 0300   68 72  280/  8/ 10 1012.7R         3/11


USA.gov is the U.S. government's official web portal to all federal, state and local government web resources and services.